(354) Eleonora
ephemeris date magn radius delta ra dec elong phase
Today27 Jun 202611.43.102 AU2.404 AU22h04m-09°09'125.1°15.6°
Opposition15 Aug 202610.33.112 AU2.099 AU21h40m-15°03'179.0°0.3°
(354) Eleonora - 2026-06-27
astro.vanbuitenen.nl


 
-1 year
-1 month
-1 day
Now
+1 day
+1 month
+1 year

The interactive orbit chart above shows the body's path through the solar system and its position at the given date. Green and blue lines are shown perpendicular to the ecliptic plane: Green if the path is above the ecliptic plane, blue if it is below. (Left-click and drag to rotate the view; Right-click and drag to move the view; Use scroll wheel to zoom in our out.)

The orbital elements of Eleonora are:

            e (Eccentricity)                : 0.1118861
            a (Semimajor axis)              : 2.8007731
            i (Inclination)                 : 18.36241
            Ω (Longitude of ascending node) : 140.20386
            ω (Argument of perihelion)      : 8.17863
            M (Mean anomaly)                : 158.40051
            Epoch                           : 2026 Jun 09

            L (Longitude of perihelion)     : 147.97127
            B (Latitude of perihelion)      : 2.56860
            P (Orbital period in years)     : 4.69            
        

The light curve chart below shows the estimated development of the minor planet's magnitude.


The all-sky chart below shows the path of the minor planet over the same period as the light curve. The current position is marked yellow.





The following chart shows the path of the minor planet in the next few days. The field of view is optimized for (~10x50) binoculars and finderscopes.




Ephemerides:
Date       Time       RA (2000)    DEC (2000)    delta   radius  elong  phase   PA    magn
2026-06-27 00:00 UT   22 04 22.2   -09 09 45     2.404    3.102  125.1   15.6   248   11.4 
2026-06-27 02:18 UT   22 04 22.0   -09 10 07     2.403    3.102  125.2   15.5   248   11.4 
2026-06-28 00:00 UT   22 04 19.0   -09 13 42     2.393    3.102  126.1   15.4   248   11.4 
2026-06-29 00:00 UT   22 04 14.5   -09 17 50     2.382    3.103  127.1   15.2   248   11.4 
2026-06-30 00:00 UT   22 04 08.8   -09 22 06     2.371    3.103  128.1   14.9   248   11.3 
2026-07-01 00:00 UT   22 04 01.9   -09 26 33     2.360    3.103  129.1   14.7   248   11.3 
2026-07-02 00:00 UT   22 03 53.7   -09 31 08     2.350    3.103  130.1   14.5   248   11.3 
2026-07-03 00:00 UT   22 03 44.3   -09 35 54     2.339    3.104  131.1   14.3   248   11.3 
2026-07-04 00:00 UT   22 03 33.7   -09 40 48     2.329    3.104  132.1   14.1   248   11.3 
2026-07-05 00:00 UT   22 03 21.8   -09 45 52     2.319    3.104  133.2   13.8   248   11.2 
2026-07-06 00:00 UT   22 03 08.6   -09 51 06     2.309    3.104  134.2   13.6   248   11.2 
2026-07-07 00:00 UT   22 02 54.2   -09 56 29     2.299    3.105  135.2   13.3   248   11.2 
2026-07-08 00:00 UT   22 02 38.6   -10 02 01     2.289    3.105  136.3   13.1   248   11.2 
2026-07-09 00:00 UT   22 02 21.8   -10 07 43     2.280    3.105  137.3   12.8   248   11.2 
2026-07-10 00:00 UT   22 02 03.8   -10 13 33     2.271    3.105  138.4   12.6   248   11.2 
2026-07-11 00:00 UT   22 01 44.5   -10 19 33     2.262    3.106  139.5   12.3   248   11.1 
2026-07-12 00:00 UT   22 01 24.0   -10 25 42     2.253    3.106  140.5   12.0   248   11.1 
2026-07-13 00:00 UT   22 01 02.3   -10 32 00     2.245    3.106  141.6   11.7   248   11.1 
2026-07-14 00:00 UT   22 00 39.5   -10 38 27     2.236    3.106  142.7   11.4   248   11.1 
2026-07-15 00:00 UT   22 00 15.4   -10 45 02     2.228    3.107  143.8   11.1   248   11.1 
2026-07-16 00:00 UT   21 59 50.3   -10 51 46     2.220    3.107  144.9   10.9   248   11.0 
2026-07-17 00:00 UT   21 59 24.0   -10 58 38     2.212    3.107  146.0   10.6   248   11.0 
2026-07-18 00:00 UT   21 58 56.5   -11 05 39     2.205    3.107  147.1   10.2   248   11.0 
2026-07-19 00:00 UT   21 58 28.0   -11 12 47     2.197    3.107  148.2    9.9   248   11.0 
2026-07-20 00:00 UT   21 57 58.4   -11 20 03     2.190    3.108  149.3    9.6   248   11.0 
2026-07-21 00:00 UT   21 57 27.8   -11 27 26     2.184    3.108  150.4    9.3   248   10.9 
2026-07-22 00:00 UT   21 56 56.1   -11 34 57     2.177    3.108  151.5    9.0   248   10.9 
2026-07-23 00:00 UT   21 56 23.4   -11 42 34     2.171    3.108  152.6    8.6   249   10.9 
2026-07-24 00:00 UT   21 55 49.8   -11 50 19     2.165    3.108  153.8    8.3   249   10.9 
2026-07-25 00:00 UT   21 55 15.2   -11 58 09     2.159    3.109  154.9    8.0   249   10.9 
2026-07-26 00:00 UT   21 54 39.6   -12 06 06     2.153    3.109  156.0    7.6   249   10.8 
2026-07-27 00:00 UT   21 54 03.2   -12 14 10     2.148    3.109  157.2    7.3   249   10.8 


    Terminology:
            
    delta:  distance between minor planet and earth in AU
    radius: distance between minor planet and sun in AU
    magn:   magnitude (brightness) estimate    
    ra:     right ascension in hours (24h = 360deg)
    dec:    declination in degrees
    elong:  elongation in degrees (angle sun-earth-minor planet)    
    phase:  phase angle in degrees (angle sun-minor planet-earth)        
    AU:     Astronomical Unit (mean distance between earth and sun: 149597870.7 km
    

Orbital elements provided by the MPC (Minor Planet Center).
Calculations by a modified version of AAPlus, a C# implementation of the AA+ project by PJ Naughter from the algorithms presented in the book "Astronomical Algorithms" by Jean Meeus.
NGC2000 dso catalog and star labels from VizieR as provided by the Strasbourg astronomical Data Center.
Tycho2 catalog from the ESO archive.